TimeMST,TemperatureF,Dew PointF,Humidity,Sea Level PressureIn,VisibilityMPH,Wind Direction,Wind SpeedMPH,Gust SpeedMPH,PrecipitationIn,Events,Conditions,WindDirDegrees,DateUTC
12:53 AM,57.0,28.9,34,29.99,10.0,WSW,9.2,-,N/A,,Clear,250,2013-01-25 07:53:00
1:53 AM,55.9,30.0,37,30.00,10.0,West,9.2,-,N/A,,Clear,280,2013-01-25 08:53:00
2:53 AM,57.0,30.9,37,29.99,10.0,WNW,9.2,-,N/A,,Clear,290,2013-01-25 09:53:00
3:53 AM,57.9,32.0,37,30.00,10.0,NNW,8.1,-,N/A,,Clear,330,2013-01-25 10:53:00
4:53 AM,51.1,30.0,44,30.03,10.0,North,12.7,-,N/A,,Clear,350,2013-01-25 11:53:00
5:53 AM,53.1,30.9,43,30.05,10.0,SSE,3.5,-,N/A,,Clear,160,2013-01-25 12:53:00
6:53 AM,50.0,30.9,48,30.06,10.0,WSW,8.1,-,N/A,,Clear,240,2013-01-25 13:53:00
7:53 AM,55.9,33.1,42,30.07,10.0,WSW,11.5,-,N/A,,Clear,250,2013-01-25 14:53:00
8:53 AM,62.1,32.0,32,30.07,10.0,NNW,4.6,-,N/A,,Clear,330,2013-01-25 15:53:00
9:53 AM,62.1,32.0,32,30.09,10.0,East,6.9,-,N/A,,Clear,90,2013-01-25 16:53:00
10:53 AM,64.9,33.1,31,30.10,10.0,ESE,3.5,-,N/A,,Clear,110,2013-01-25 17:53:00
11:53 AM,71.1,34.0,26,30.06,10.0,North,4.6,-,N/A,,Clear,350,2013-01-25 18:53:00
12:53 PM,72.0,34.0,25,30.02,10.0,NE,9.2,-,N/A,,Clear,40,2013-01-25 19:53:00
1:53 PM,71.1,35.1,27,30.00,10.0,Calm,Calm,-,N/A,,Mostly Cloudy,0,2013-01-25 20:53:00
2:53 PM,71.1,37.0,29,29.99,10.0,East,3.5,-,N/A,,Mostly Cloudy,100,2013-01-25 21:53:00
3:53 PM,71.1,37.0,29,29.99,10.0,East,5.8,-,N/A,,Clear,90,2013-01-25 22:53:00
4:53 PM,68.0,37.9,33,30.00,10.0,ESE,3.5,-,N/A,,Clear,120,2013-01-25 23:53:00
5:53 PM,61.0,37.0,41,30.02,10.0,WSW,3.5,-,N/A,,Clear,240,2013-01-26 00:53:00
6:53 PM,57.0,37.9,49,30.04,10.0,Calm,Calm,-,N/A,,Clear,0,2013-01-26 01:53:00
7:53 PM,55.9,39.9,55,30.04,10.0,SW,4.6,-,N/A,,Clear,230,2013-01-26 02:53:00
8:53 PM,55.0,39.9,57,30.03,10.0,West,5.8,-,N/A,,Clear,270,2013-01-26 03:53:00
9:53 PM,53.1,39.9,61,30.05,10.0,ESE,3.5,-,N/A,,Clear,110,2013-01-26 04:53:00
10:53 PM,51.1,39.0,63,30.05,10.0,Calm,Calm,-,N/A,,Overcast,0,2013-01-26 05:53:00
11:53 PM,51.1,39.9,66,30.04,10.0,SE,3.5,-,N/A,,Overcast,130,2013-01-26 06:53:00